Glens Falls, NY

5:00 AM EST on November 13, 2019 (GMT -0500)
Bennett Memorial

Weather History for KGFL - September, 2019

Change the Weather History Date:

Friday, September 27, 2019

  Actual Average Record
Temperature  
Mean Temperature 58 °F 54 °F  
Max Temperature 69 °F 66 °F 87 °F (2017)
Min Temperature 46 °F 42 °F 25 °F (1947)
Degree Days  
Heating Degree Days 7 11  
Month to date heating degree days 168 183  
Since 1 July heating degree days 196 249  
Cooling Degree Days 0 0  
Month to date cooling degree days 21 23  
Year to date cooling degree days 416 350  
Growing Degree Days 8 (Base 50)    
Moisture  
Dew Point 49 °F    
Average Humidity 73    
Maximum Humidity 96    
Minimum Humidity 49    
Precipitation  
Precipitation 0.00 in 0.12 in 1.82 in (2009)
Month to date precipitation 2.06 3.02  
Year to date precipitation 30.85 28.83  
Sea Level Pressure  
Sea Level Pressure 30.06 in    
Wind  
Wind Speed 5 mph (South)    
Max Wind Speed 13 mph    
Max Gust Speed 16 mph    
Visibility 7 miles    
Events Fog    
T = Trace of Precipitation, MM = Missing Value Source: NWS Daily Summary

Daily Weather History Graph

Daily Weather History Graph

Search for Another Location

Airport or City:

Astronomy

Sep. 27, 2019 Rise Set
Actual Time 6:47 AM EDT 6:43 PM EDT
Civil Twilight 6:18 AM EDT 7:11 PM EDT
Nautical Twilight 5:45 AM EDT 7:44 PM EDT
Astronomical Twilight 5:11 AM EDT 8:18 PM EDT
Moon 5:00 AM EDT (9/27) 6:35 PM EDT (9/27)
Length of Visible Light 12h 52m
Length of Day
11h 56m
Waning Crescent, 2% of the Moon is Illuminated
Sep 27
Waning Crescent
Sep 28
New
Oct 5
First Quarter
Oct 13
Full
Oct 21
Last Quarter

Hourly Weather History & Observations

Time (EDT) Temp. Dew Point Humidity Pressure Visibility Wind Dir Wind Speed Gust Speed Precip Events Conditions
12:53 AM - - N/A% 29.94 in - North - - N/A   Unknown
1:53 AM - - N/A% 29.97 in - North - - N/A   Unknown
2:53 AM - - N/A% 29.99 in - North - - N/A   Unknown
3:53 AM - - N/A% 30.00 in - North - - N/A   Unknown
4:53 AM - - N/A% 30.02 in - North - - N/A   Unknown
5:53 AM - - N/A% 30.04 in - North - - N/A   Unknown
6:53 AM - - N/A% 30.07 in - North - - N/A   Unknown
7:53 AM - - N/A% 30.09 in - North - - N/A   Unknown
8:53 AM - - N/A% 30.11 in - North - - N/A   Unknown
9:53 AM - - N/A% 30.13 in - North - - N/A   Unknown
10:53 AM - - N/A% 30.12 in - North - - N/A   Unknown
11:53 AM 62.1 °F 51.1 °F 67% 30.11 in 10.0 mi SSE 4.6 mph - N/A   Clear
12:53 PM 64.9 °F 48.9 °F 56% 30.10 in 10.0 mi ESE 6.9 mph - N/A   Clear
1:53 PM 66.0 °F 50.0 °F 56% 30.08 in 10.0 mi SE 9.2 mph - N/A   Partly Cloudy
2:53 PM 66.9 °F 50.0 °F 54% 30.07 in 10.0 mi North - - N/A   Clear
3:53 PM 68.0 °F 50.0 °F 52% 30.05 in 10.0 mi SSE 12.7 mph - N/A   Clear
4:53 PM 68.0 °F 48.9 °F 50% 30.05 in 10.0 mi South 8.1 mph - N/A   Clear
5:53 PM 66.0 °F 48.9 °F 54% 30.06 in 10.0 mi South 5.8 mph - N/A   Clear
6:53 PM 60.1 °F 50.0 °F 69% 30.05 in 10.0 mi SSE 3.5 mph - N/A   Clear
7:53 PM 54.0 °F 51.1 °F 90% 30.06 in 10.0 mi WSW 3.5 mph - N/A   Clear
8:53 PM 52.0 °F 50.0 °F 93% 30.07 in 10.0 mi Calm Calm - N/A   Clear
9:53 PM 50.0 °F 48.9 °F 96% 30.06 in 5.0 mi Calm Calm - N/A   Clear
10:14 PM 48.9 °F 48.0 °F 97% 30.06 in 1.8 mi Calm Calm - N/A   Clear
10:29 PM 48.9 °F 48.0 °F 97% 30.06 in 4.0 mi SW 3.5 mph - N/A   Clear
10:35 PM 48.9 °F 48.0 °F 97% 30.06 in 1.5 mi SW 3.5 mph - N/A   Clear
10:46 PM 50.0 °F 48.0 °F 93% 30.06 in 4.0 mi Calm Calm - N/A   Clear
10:53 PM 51.1 °F 48.9 °F 92% 30.06 in 10.0 mi Calm Calm - N/A   Clear
11:21 PM 50.0 °F 46.9 °F 89% 30.07 in 1.5 mi Calm Calm - N/A   Clear
11:29 PM 48.0 °F 46.0 °F 93% 30.08 in 0.5 mi Calm Calm - N/A Fog Fog
11:38 PM 48.9 °F 48.0 °F 97% 30.08 in 3.0 mi Calm Calm - N/A   Clear
11:53 PM 48.0 °F 46.9 °F 96% 30.08 in 10.0 mi Calm Calm - N/A   Clear